Regional Weather Roundup
Issued by NWS

Home | Current Version | Previous Version | Text Only | Print | Product List | Glossary Off
Versions: 1 2 3 4 5 6 7 8 9 10 11 12 13 14 15 16 17 18 19 20 21 22 23 24 25 26 27 28 29 30 31 32 33 34 35 36 37 38 39 40 41 42 43 44 45 46 47 48 49 50

000
ASUS45 KCYS 301310
RWRWY

WYOMING REGIONAL WEATHER ROUNDUP
NATIONAL WEATHER SERVICE CHEYENNE WY
700 AM MDT SAT JUL 30 2016

NOTE:  "FAIR" INDICATES FEW OR NO CLOUDS BELOW 12,000 FEET
WITH NO SIGNIFICANT WEATHER AND/OR OBSTRUCTIONS TO VISIBILITY.

WYZ001-301400-
YELLOWSTONE NATIONAL PARK

CITY           SKY/WX    TMP DP  RH WIND       PRES   REMARKS
LK YELLOWSTONE   N/A     43  41  93 NW3       30.21R
W YELLOWSTONE  NOT AVBL

$$
WYZ002>013-054>058-071-098>099-301400-
NORTHERN WYOMING

CITY           SKY/WX    TMP DP  RH WIND       PRES   REMARKS
JACKSON        CLEAR     46  36  66 CALM      30.13R
CODY           FAIR      57  48  72 SW5       30.00S
GREYBULL       FAIR      67  46  47 CALM      29.93F
WORLAND        FAIR      67  48  50 SE6       29.95F
SHERIDAN       FAIR      60  49  66 CALM      29.93S
BUFFALO        FAIR      67  47  48 CALM      30.01S
GILLETTE       FAIR      63  56  78 S7        29.98R
HULETT         FAIR      63  55  77 SW5       30.00R
NEWCASTLE      FAIR      61  54  77 CALM      30.02R

$$
WYZ014>020-022>026-101>103-301400-
CENTRAL WYOMING

CITY           SKY/WX    TMP DP  RH WIND       PRES   REMARKS
BIG PINEY      FAIR      47  31  53 CALM      30.20R
PINEDALE       FAIR      46  36  66 NW3       30.21S
DUBOIS         FAIR      50  39  66 NW13      30.18F HAZE
LANDER         FAIR      60  43  53 NW3       30.08S
RIVERTON       FAIR      59  50  72 W6        30.07R
CASPER         FAIR      53  52  96 SW5       30.06S
DOUGLAS        FAIR      59  56  89 CALM      30.05R

$$
WYZ021-027>030-104>119-301400-
SOUTHERN WYOMING

CITY           SKY/WX    TMP DP  RH WIND       PRES   REMARKS
EVANSTON       FAIR      61  32  33 SE7       30.19R
KEMMERER         N/A     52  32  46 N10       30.20S
FORT BRIDGER   FAIR      59  32  35 NW5       30.20S
ROCK SPRINGS   FAIR      58  42  55 SE8       30.17R
DIXON          FAIR      49  34  56 E6        30.20R
RAWLINS        FAIR      55  51  86 N3        30.18R
SARATOGA       FAIR      48  41  76 S7        30.20R
LARAMIE        FOG       50  50 100 S3        30.18S VSB 1/4
CHEYENNE       FOG       61  60  97 S5        30.12R VSB 1
TORRINGTON     FAIR      60  58  92 SE6       30.01F
PINE BLUFFS    FAIR      61  59  94 SE5       30.10R

$$



USA.gov is the U.S. government's official web portal to all federal, state and local government web resources and services.